Flag for U.S.A. Weather past 2 weeks in San Jose, California, U.S.A.

Now
58 °F

Passing clouds.


Feels Like: 57 °F
Forecast: 54 / 73 °F
Wind: 6 mph from Northwest

Location: San Jose International Airport

Current Time: May 27, 2015 at 1:13:11 AM

Latest Report: May 26, 2015 at 11:53 PM


Visibility: 10 mi

Pressure: 30.01 "Hg

Humidity: 75%

Dew point: 50 °F

Location of San JoseLocation

Historic Weather in San Jose — Graph

°F

San Jose temperature yesterday

Maximum temperature yesterday: 68 °F (at 1:53 PM)
Minimum temperature yesterday: 57 °F (at 1:53 AM)
Average temperature yesterday: 61 °F

Past Weeks' High & Low Weather Summary

 TemperatureHumidityPressure
High69 °F (May 24, 12:53 PM)100% (May 14, 4:53 PM)30.13 "Hg (May 14, 4:53 PM)
Low47 °F (May 12, 5:53 AM)34% (May 12, 4:53 PM)29.80 "Hg (May 14, 5:53 PM)
Average59 °F66%29.98 "Hg
* Reported May 11 11:53 PM — May 26 11:53 PM, San Jose, Weather by CustomWeather, © 2015

Note: Actual official high and low records may vary slightly from our data, if they occured in-between our weather recording intervals... More about our weather records

Advertising

San Jose weather history for previous 24 hours

 ConditionsComfort  
Time TempWeatherWind HumidityBarometerVisibility
11:53 PM
Tue, May 26
58 °FPassing clouds.6 mph75%30.01 "Hg10 mi
10:53 PM58 °FPassing clouds.8 mph75%30.01 "Hg10 mi
9:53 PM58 °FPassing clouds.9 mph75%30.01 "Hg10 mi
8:53 PM58 °FScattered clouds.12 mph75%29.99 "Hg10 mi
7:53 PM60 °FPassing clouds.16 mph72%29.97 "Hg10 mi
6:53 PM63 °FPassing clouds.17 mph65%29.96 "Hg10 mi
5:53 PM65 °FPassing clouds.14 mph61%29.96 "Hg10 mi
4:53 PM67 °FPassing clouds.17 mph57%29.96 "Hg10 mi
3:53 PM67 °FPassing clouds.16 mph59%29.97 "Hg10 mi
2:53 PM68 °FPassing clouds.14 mph57%29.97 "Hg10 mi
1:53 PM68 °FPassing clouds.12 mph55%29.98 "Hg10 mi
12:53 PM67 °FPassing clouds.7 mph55%29.99 "Hg10 mi
11:53 AM65 °FPassing clouds.3 mph56%30.00 "Hg10 mi
10:53 AM61 °FScattered clouds.3 mph65%30.01 "Hg10 mi
9:53 AM59 °FMostly cloudy.3 mph67%30.01 "Hg10 mi
8:53 AM57 °FMostly cloudy.3 mph72%30.02 "Hg10 mi
7:53 AM57 °FMostly cloudy.7 mph72%30.01 "Hg10 mi
6:53 AM57 °FMostly cloudy.3 mph74%29.99 "Hg10 mi
5:53 AM57 °FMostly cloudy.No wind74%29.98 "Hg10 mi
4:53 AM57 °FOvercast.6 mph74%29.98 "Hg10 mi
3:53 AM57 °FOvercast.7 mph74%29.97 "Hg10 mi
2:53 AM57 °FOvercast.7 mph78%29.98 "Hg10 mi
1:53 AM57 °FOvercast.5 mph81%29.99 "Hg10 mi
Weather by CustomWeather, © 2015

See weather overviewHow to use our weather pages